User: anonymous   Login
Location: Fours
(44.3167°N, 6.7000°E)
Time: 00:10:36
(UTC+00:00)
Language:

PSLV DEB - Orbit

View from above orbital plane
View from above orbital plane
View from above satellite
View from above satellite

Ground track
Ground track

The orbit data is extracted from the following two-line orbital elements,

1 27132U 01049CC  22226.56274528  .00003257  00000-0  19452-3 0  9993
2 27132  97.8022 246.5533 0041952 252.1768 262.2766 15.11129382137820
Epoch (UTC): 14 August 2022 13:30:21
Eccentricity: 0.0041952
inclination: 97.8022°
perigee height: 504 km
apogee height: 562 km
right ascension of ascending node: 246.5533°
argument of perigee: 252.1768°
revolutions per day: 15.11129382
mean anomaly at epoch: 262.2766°
orbit number at epoch: 13782

The dashed part of the orbit path shows where the satellite is in the earth's shadow,  

DLR